TimeMDT,TemperatureF,Dew PointF,Humidity,Sea Level PressureIn,VisibilityMPH,Wind Direction,Wind SpeedMPH,Gust SpeedMPH,PrecipitationIn,Events,Conditions,WindDirDegrees,DateUTC
12:53 AM,62.1,59.0,90,29.94,10.0,SE,3.5,-,0.00,Rain,Light Rain,140,2013-09-10 06:53:00
1:53 AM,62.1,60.1,93,29.92,10.0,North,3.5,-,0.00,,Scattered Clouds,360,2013-09-10 07:53:00
2:53 AM,62.1,60.1,93,29.94,10.0,Calm,Calm,-,N/A,,Overcast,0,2013-09-10 08:53:00
3:53 AM,62.1,60.1,93,29.95,8.0,West,4.6,-,N/A,,Mostly Cloudy,280,2013-09-10 09:53:00
4:53 AM,62.1,59.0,90,29.98,10.0,West,4.6,-,N/A,,Overcast,270,2013-09-10 10:53:00
5:53 AM,62.1,57.9,86,30.01,10.0,West,3.5,-,N/A,,Partly Cloudy,270,2013-09-10 11:53:00
6:53 AM,61.0,59.0,93,30.02,10.0,WNW,3.5,-,N/A,,Partly Cloudy,290,2013-09-10 12:53:00
7:53 AM,62.1,59.0,90,30.04,10.0,West,5.8,-,0.00,,Scattered Clouds,270,2013-09-10 13:53:00
8:53 AM,63.0,-9999,N/A,30.05,10.0,WNW,3.5,-,0.00,,Mostly Cloudy,300,2013-09-10 14:53:00
9:53 AM,66.0,-9999,N/A,30.07,10.0,WNW,4.6,-,N/A,,Overcast,290,2013-09-10 15:53:00
10:53 AM,68.0,60.1,76,30.07,10.0,Variable,3.5,-,N/A,,Mostly Cloudy,0,2013-09-10 16:53:00
11:53 AM,72.0,59.0,64,30.05,10.0,Calm,Calm,-,N/A,,Mostly Cloudy,0,2013-09-10 17:53:00
12:53 PM,73.9,57.0,55,30.05,10.0,NW,4.6,-,N/A,,Mostly Cloudy,320,2013-09-10 18:53:00
1:53 PM,75.0,53.1,46,30.04,10.0,North,4.6,-,N/A,,Overcast,360,2013-09-10 19:53:00
2:53 PM,75.0,55.0,50,30.04,10.0,NNE,3.5,-,N/A,,Overcast,30,2013-09-10 20:53:00
3:53 PM,75.0,55.9,51,30.04,10.0,Calm,Calm,-,N/A,,Partly Cloudy,0,2013-09-10 21:53:00
4:53 PM,70.0,60.1,71,30.05,10.0,South,4.6,-,0.00,Rain,Light Rain,170,2013-09-10 22:53:00
5:53 PM,66.9,59.0,76,30.06,10.0,SSE,6.9,-,0.00,Rain,Light Rain,150,2013-09-10 23:53:00
6:53 PM,66.9,59.0,76,30.07,10.0,Calm,Calm,-,0.00,,Overcast,0,2013-09-11 00:53:00
7:53 PM,66.0,57.9,75,30.09,10.0,Calm,Calm,-,N/A,,Scattered Clouds,0,2013-09-11 01:53:00
8:53 PM,64.0,59.0,84,30.11,10.0,Calm,Calm,-,N/A,,Scattered Clouds,0,2013-09-11 02:53:00
9:53 PM,64.0,59.0,84,30.10,10.0,Calm,Calm,-,N/A,,Overcast,0,2013-09-11 03:53:00
10:53 PM,63.0,59.0,87,30.10,10.0,Calm,Calm,-,N/A,,Scattered Clouds,0,2013-09-11 04:53:00
11:53 PM,63.0,60.1,90,30.10,10.0,Calm,Calm,-,N/A,,Overcast,0,2013-09-11 05:53:00